Location: Unspecified
(48.2082°N, 0.0000°E)
Time: 06:13:52
(UTC+00:00)

Vanguard 1 - Pass Details

Date: 26 June 2019
Orbit: 653 x 3830 km, 34.3° (Epoch: 17 July)

Event Time Altitude Azimuth Distance (km) Brightness Sun altitude
Rises 23:59:36 0° 210° (SSW) 7,959 - -18.4°
Reaches altitude 10° 00:06:21 10° 201° (SSW) 6,879 - -18.4°
Exits shadow 00:14:23 22° 185° (S) 5,657 13.2 -18.4°
Maximum altitude 00:23:22 29° 152° (SSE) 4,676 13.0 -18.3°
Drops below altitude 10° 00:35:46 10° 100° (E) 5,026 13.6 -18.0°
Sets 00:39:38 0° 89° (E) 5,609 14.1 -17.9°
